Weather History for Kivalina, AK

Change the Weather History Date:

Thursday, October 3, 2013

  Actual Average Record
Temperature  
Mean Temperature 26 °F -  
Max Temperature 32 °F - - ()
Min Temperature 21 °F - - ()
Degree Days  
Heating Degree Days 38    
Moisture  
Dew Point 22 °F    
Average Humidity 82    
Maximum Humidity 89    
Minimum Humidity 73    
Precipitation  
Precipitation 0.00 in - - ()
Sea Level Pressure  
Sea Level Pressure 29.95 in    
Wind  
Wind Speed 6 mph (North)    
Max Wind Speed 9 mph    
Max Gust Speed -    
Visibility 9 miles    
Events      
T = Trace of Precipitation, MM = Missing Value Source: NWS Daily Summary

Daily Weather History Graph

Daily Weather History Graph

Search for Another Location

Airport:

Trip Planner

Search our weather history database for the weather conditions in past years. The results will help you decide how hot, cold, wet, or windy it might be!

Date:

Astronomy

Oct. 03, 2013 Rise Set
Actual Time 9:19 AM AKDT 8:12 PM AKDT
Civil Twilight 8:24 AM AKDT 9:07 PM AKDT
Nautical Twilight 7:19 AM AKDT 10:11 PM AKDT
Astronomical Twilight 6:08 AM AKDT 11:22 PM AKDT
Moon 7:49 AM AKDT (10/3) 7:31 PM AKDT (10/3)
Length of Visible Light 12h 42m
Length of Day
10h 52m
Waning Crescent, 2% of the Moon is Illuminated
Oct 3
Waning Crescent
Oct 4
New
Oct 11
First Quarter
Oct 18
Full
Oct 26
Last Quarter

Hourly Weather History & Observations

Time (AKDT) Temp. Windchill Dew Point Humidity Pressure Visibility Wind Dir Wind Speed Gust Speed Precip Events Conditions
12:53 AM 28.9 °F 21.1 °F 23.0 °F 78% 30.03 in 10.0 mi North 8.1 mph - N/A   Overcast
1:53 AM 25.0 °F 17.1 °F 21.0 °F 85% 30.03 in 10.0 mi NE 6.9 mph - N/A   Overcast
2:42 AM 23.0 °F 15.8 °F 19.4 °F 86% 30.02 in 10.0 mi NE 5.8 mph - N/A   Scattered Clouds
2:53 AM 23.0 °F 15.8 °F 19.0 °F 85% 30.02 in 10.0 mi NE 5.8 mph - N/A   Partly Cloudy
3:53 AM 21.9 °F 14.5 °F 19.0 °F 89% 30.01 in 10.0 mi NE 5.8 mph - N/A   Clear
4:53 AM 21.9 °F 14.5 °F 19.0 °F 89% 30.01 in 10.0 mi North 5.8 mph - N/A   Partly Cloudy
5:53 AM 21.0 °F 14.6 °F 18.0 °F 88% 30.00 in 10.0 mi ENE 4.6 mph - N/A   Overcast
6:53 AM 21.9 °F 12.5 °F 19.0 °F 89% 29.99 in 10.0 mi NNE 8.1 mph - N/A   Overcast
7:53 AM 24.1 °F 18.2 °F 19.9 °F 84% 29.98 in 10.0 mi NNE 4.6 mph - N/A   Overcast
8:53 AM 26.1 °F 17.6 °F 21.9 °F 84% 29.97 in 10.0 mi NNE 8.1 mph - N/A   Overcast
9:53 AM 25.0 °F 16.3 °F 21.0 °F 85% 29.97 in 10.0 mi NNE 8.1 mph - N/A   Overcast
10:53 AM 26.1 °F 16.8 °F 23.0 °F 88% 29.96 in 10.0 mi NNE 9.2 mph - N/A   Overcast
11:53 AM 27.0 °F 18.0 °F 23.0 °F 85% 29.96 in 10.0 mi North 9.2 mph - N/A   Overcast
12:53 PM 30.0 °F 23.2 °F 24.1 °F 79% 29.95 in 10.0 mi NNE 6.9 mph - N/A   Overcast
1:53 PM 30.9 °F 25.2 °F 24.1 °F 76% 29.95 in 10.0 mi NW 5.8 mph - N/A   Scattered Clouds
2:53 PM 32.0 °F 24.2 °F 24.1 °F 73% 29.93 in 10.0 mi WNW 9.2 mph - N/A   Clear
3:53 PM 30.0 °F 22.4 °F 24.1 °F 79% 29.92 in 10.0 mi WNW 8.1 mph - N/A   Mostly Cloudy
4:26 PM 30.2 °F 26.7 °F 24.8 °F 80% 29.91 in 8.0 mi WNW 3.5 mph - N/A   Scattered Clouds
4:47 PM 30.2 °F - 24.8 °F 80% 29.91 in 1.8 mi Calm Calm - N/A   Haze
4:53 PM 30.0 °F - 24.1 °F 79% 29.91 in 1.5 mi Calm Calm - N/A   Haze
4:56 PM 30.2 °F - 24.8 °F 80% 29.91 in 5.0 mi Calm Calm - N/A   Haze
5:25 PM 30.2 °F - 24.8 °F 80% 29.90 in 4.0 mi Calm Calm - N/A   Haze
5:53 PM 30.9 °F - 24.1 °F 76% 29.89 in 10.0 mi Calm Calm - N/A   Clear
6:53 PM 30.0 °F - 24.1 °F 79% 29.89 in 9.0 mi Calm Calm - N/A   Clear
8:53 PM 28.0 °F 21.7 °F 23.0 °F 81% 29.88 in 10.0 mi NNW 5.8 mph - N/A   Clear
9:53 PM 27.0 °F 20.5 °F 21.0 °F 78% 29.88 in 10.0 mi North 5.8 mph - N/A   Clear
10:53 PM 26.1 °F 20.5 °F 19.9 °F 78% 29.88 in 10.0 mi North 4.6 mph - N/A   Clear
11:53 PM 25.0 °F 16.3 °F 19.9 °F 81% 29.88 in 10.0 mi NNE 8.1 mph - N/A   Clear